Location: Unspecified
(34.4950°S, 58.5160°W)
Time: 18:46:05
(UTC+00:00)

BlueWalker 3 - Pass Details

Date: 21 February 2026
Orbit: 451 x 458 km, 53.2° (Epoch: 6 March)

Event Time Altitude Azimuth Distance (km) Brightness Sun altitude
Rises 23:23:06 0° 276° (W) 2,471 6.8 -9.3°
Reaches altitude 10° 23:25:50 10° 254° (WSW) 1,605 6.2 -9.8°
Maximum altitude 23:28:13 17° 212° (SSW) 1,264 4.7 -10.3°
Drops below altitude 10° 23:30:37 10° 171° (S) 1,618 4.7 -10.7°
Sets 23:33:23 0° 149° (SSE) 2,500 5.4 -11.3°
